Vertical_Velocity
-1 7 -4 3 -14 -2 -4 -0 2 -6 -1 -0 -4 0 -0 4 2 -6 -5 -1 2 2 -4 -1 -1 -3 0 0 -2 3 -3 3 1 0 -1 -3 1 -5 1 -4 -5 -7 -5 -1 2 2 -11 -0 2 -5 -12 -2 -3 -3
3 1 0 -3 6 1 -5 1 -5 4 1 3 -2 -0 -2 -6 2 3 -5 -6 -3 -4 1 2 -0 3 1 3 -1 1 -2 -3 -6 -2 -0 0 0 1 -3 -3 3 -5 -11 -11 -14 -19 -2 -2 -1 -2 4 1 -7 5
6 1 -0 3 -0 -1 4 -1 -1 -4 6 -0 2 -2 1 1 -1 1 3 -1 -5 -1 -13 -1 -1 1 2 -3 10 1 2 -1 2 2 -4 -2 -0 -3 -2 -6 1 -0 1 0 -0 -4 -8 4 3 3 6 12 1 -2
-4 7 0 3 2 4 3 0 -1 0 -3 2 -3 -3 0 -3 3 1 1 1 2 -5 3 -8 -2 0 -0 -1 -6 -1 6 6 5 3 0 -1 -1 1 -2 -5 -3 -7 2 -2 -5 -7 -1 -9 -1 5 -2 -2 -1 -1
2 -5 -2 -4 6 8 -1 -1 0 -2 -0 1 1 1 -6 -4 0 -3 0 1 3 -5 -1 -7 -3 -6 4 -1 2 6 4 4 4 -1 2 -2 -0 2 -1 3 -0 -3 -9 6 -12 -7 8 -8 -8 -5 11 6 2 5
-3 -1 -6 -2 0 -2 -1 5 -1 2 7 1 4 2 -3 3 7 1 -4 -5 2 2 3 0 -2 -7 -4 1 1 2 2 7 5 -0 -3 0 -2 1 2 -0 -15 -7 -1 -6 -22 10 5 1 5 3 5 -2 -3 3
-0 -5 -3 4 5 -8 -1 2 0 -2 2 1 0 5 2 2 6 -4 -1 1 3 18 2 -1 -2 1 -1 3 1 -0 1 2 1 -2 1 -0 -0 -3 2 1 -14 -2 -5 -10 -3 15 -7 -3 -10 -4 3 -0 4 5
0 3 -0 0 -1 -1 -3 -6 1 3 0 1 2 -1 -3 1 3 -7 5 4 4 17 4 1 -5 0 2 -0 1 0 0 2 4 -2 4 0 3 3 1 -9 -6 -9 -1 2 -4 6 7 4 3 2 1 4 1 2
-6 -2 2 1 -3 4 2 -2 -3 3 -3 -0 1 1 0 -4 -5 -1 -6 -7 -1 6 -0 3 -0 -5 3 2 0 0 1 2 -0 1 -1 2 0 -2 -7 -3 -1 -2 2 1 2 9 9 5 3 1 2 0 1 -1
2 -6 -4 1 4 2 -4 -2 2 2 6 5 1 -4 -2 -1 0 1 4 3 12 1 -0 1 3 -2 -1 -1 1 2 1 -1 1 -7 0 3 -7 -10 1 -2 4 5 1 -0 8 2 3 -4 -3 -3 -4 -8 -9 -6
-6 1 -2 -5 6 2 1 -4 -4 6 7 4 1 -4 0 3 6 3 3 2 1 4 1 -4 -4 -1 -1 -3 -3 -1 -1 -1 2 -8 -2 -1 -2 -3 2 1 2 7 6 4 1 2 -1 -4 -7 -13 -8 -1 1 3
-3 -8 5 -1 -6 -0 8 -1 6 14 -4 -8 -5 -4 4 3 2 5 -1 1 2 -5 1 1 -2 -2 0 3 1 -1 -0 3 -3 -2 3 -0 -5 3 4 6 5 4 2 -3 0 -2 -13 0 4 2 -3 -2 -3 -2
2 -6 -11 2 13 -17 6 -0 7 10 30 3 3 4 3 -1 6 3 -1 -2 1 0 1 2 1 1 2 3 1 2 5 -4 1 3 -3 -4 2 5 4 4 -10 -11 -8 -4 -5 -1 -1 -4 -0 2 -4 -7 -4 -1
3 -2 -8 -3 -4 12 -19 2 10 13 13 7 1 2 -3 -0 -1 -2 -2 -2 -2 1 -1 -1 -0 -1 1 2 -0 4 -8 -0 1 1 -5 -1 3 0 -5 -8 -7 5 4 -2 -4 2 3 2 -3 2 4 9 5 -8
1 1 -4 -5 -6 5 11 -1 20 22 8 4 5 -1 -0 -5 1 1 1 1 -0 -3 -3 -2 -1 1 -0 1 -0 -0 -5 -1 -2 -4 -1 -6 -2 2 -2 -2 -0 -3 -8 -4 -0 -3 -6 -4 -2 -6 -2 -1 2 3
-3 1 -6 -1 -5 -6 10 10 -5 32 9 -0 4 2 1 2 -1 -0 -1 0 0 -0 -4 -1 -0 -1 -3 -2 -3 -3 -2 -4 -7 -2 3 4 1 -0 -1 2 -0 3 5 4 4 4 3 0 -3 -7 -3 -5 -4 4
4 -5 0 -4 -4 -1 8 19 1 6 4 8 -2 1 2 2 -12 -5 3 -4 2 3 -1 0 1 -12 -4 -1 -0 -3 -4 -5 -4 -7 -5 -2 -3 -9 -1 1 -4 -2 -3 -3 1 2 -1 -3 2 1 -6 -10 9 -0
-5 -2 -1 3 1 10 26 3 3 0 -0 -0 -1 -1 -2 -1 -1 -2 -7 -3 9 3 5 -4 -1 3 -1 -1 -3 -5 -4 -9 -7 -6 -9 -8 -0 -3 2 -1 -3 -0 -2 0 0 -4 1 2 5 -2 1 -4 -3 -7
-1 -1 4 3 20 7 -1 5 -2 1 -7 3 1 -0 4 -5 -2 1 0 3 8 14 12 -0 2 -1 -3 -4 -3 -8 -6 -2 -3 -6 -5 -7 -4 -0 -3 -1 1 -1 1 -3 -1 -2 0 2 1 2 5 8 -4 -3
0 5 4 4 10 4 4 3 5 1 -1 -3 2 -1 -3 -5 2 0 0 2 4 9 3 -0 -3 -16 -5 -22 -2 -4 -4 5 9 -2 -10 -7 -3 2 -4 -0 -2 1 -1 -9 -4 3 -6 -11 1 4 -2 -5 4 -14
7 -4 1 24 10 4 -4 2 1 -3 -3 -1 3 4 -1 1 -0 0 -5 10 14 -1 -2 -14 -13 -19 -1 -5 1 7 1 9 0 8 -7 -7 -11 4 -4 -6 -0 2 3 -3 -3 -14 10 3 -10 -1 9 -0 9 4
0 -2 -2 0 7 8 2 -2 2 2 1 1 1 -1 -1 -1 -3 -7 9 5 -3 -18 -6 -5 -9 1 -1 -6 -10 8 -3 0 -2 3 0 2 -8 -5 -9 -2 5 -8 -0 -1 3 1 -4 -6 1 1 3 -12 3 -0
6 2 1 -1 8 4 -3 -1 2 -1 1 -2 4 2 -0 0 -2 7 -0 -2 -14 -13 -1 0 -8 10 2 -8 11 -5 1 5 -0 2 -2 -2 -1 -1 2 -7 5 3 -8 -22 19 -1 -8 -7 -10 3 2 1 3 -3
6 0 8 4 2 -2 3 -1 2 2 3 0 0 -1 -2 -5 4 3 -2 -5 -27 -7 4 -5 13 -6 1 0 -5 -9 -11 8 1 -4 -0 4 0 -20 9 -3 -1 2 13 6 -4 -4 1 -1 5 -0 -2 3 1 1
3 -5 3 -1 7 -0 1 1 0 2 -0 -1 1 -1 -5 3 -0 0 -2 -15 -4 -3 -7 0 3 3 3 -10 -5 -8 -0 16 2 -2 -23 22 -2 -4 -7 4 -1 -6 17 -0 -3 5 -6 0 1 2 1 5 -0 -1
-1 -4 -4 -3 -0 -3 -2 -0 -0 -3 -0 1 -3 -2 2 -2 -0 -5 -4 -13 -4 -3 -3 1 3 1 -4 5 -5 -7 -16 19 8 0 -20 16 9 11 -2 -2 -8 -44 33 4 5 0 -1 3 2 1 -1 2 2 4
-1 -2 -0 2 -1 0 1 2 0 -0 0 -1 -2 0 -1 0 -3 -11 -11 -11 2 -5 0 4 8 4 -4 -8 -1 -2 -1 9 9 -4 -6 5 11 11 12 1 -8 -18 0 1 4 6 6 0 2 3 -1 -1 1 3
-5 0 -5 -7 1 2 -2 0 0 -2 -2 -1 4 -2 -2 -6 -17 -18 -1 -9 -4 4 2 0 7 11 1 -1 4 -3 -7 1 -3 4 -2 -2 -2 -3 -2 1 1 -1 2 -2 -4 -2 -1 1 0 -1 -0 -2 -4 -0
-1 -1 3 0 2 1 -3 -2 -4 -7 -4 6 1 -3 -8 -12 -7 -5 -15 3 11 5 -4 -5 -14 13 1 1 2 0 1 4 5 -1 2 -6 -6 -9 5 4 3 7 9 10 7 12 15 16 14 18 17 13 5 5
-3 2 1 1 -1 -3 -19 -0 -15 -4 8 2 4 -4 -5 -25 -9 28 2 9 2 -0 5 7 3 9 -3 5 -5 -7 6 5 8 9 -0 -0 1 2 2 3 1 0 -0 -1 -1 -3 1 1 -1 -0 -1 -1 -0 -2
1 4 2 2 -3 -18 -12 4 3 5 1 -3 10 7 -22 -11 -38 23 -4 5 3 6 6 1 1 11 1 1 4 -0 -13 1 2 4 7 2 0 -1 -0 0 1 1 1 1 0 1 0 1 2 1 0 -0 -0 2
1 -1 -1 -0 -5 -6 5 -1 -2 1 -4 1 -10 8 1 5 -3 -3 0 1 1 -1 1 2 -1 -4 4 2 4 5 6 2 0 -2 -2 -1 -3 -1 -2 -2 -1 -1 -1 -0 1 1 1 2 0 1 -0 -0 1 2
1 1 1 -0 -1 -1 1 -0 0 -2 2 -1 -1 2 3 2 -3 2 1 -0 1 1 -2 -0 1 1 -0 -0 -1 -1 1 -0 1 2 2 2 2 2 1 1 2 1 0 0 0 2 1 1 1 0 1 1 2 1
Height
1556 1555 1555 1555 1555 1558 1558 1557 1559 1560 1560 1559 1558 1557 1555 1553 1551 1549 1551 1551 1551 1547 1541 1541 1542 1543 1543 1542 1545 1546 1549 1549 1553 1557 1557 1552 1550 1540 1538 1541 1548 1551 1559 1560 1559 1557 1540 1501 1507 1509 1499 1495 1495 1495
1549 1551 1551 1552 1552 1553 1554 1553 1555 1556 1556 1555 1554 1554 1553 1552 1552 1548 1546 1547 1548 1548 1541 1537 1536 1536 1537 1538 1539 1540 1538 1537 1539 1546 1546 1542 1541 1536 1534 1537 1531 1535 1524 1531 1529 1515 1498 1496 1493 1493 1492 1491 1490 1488
1542 1543 1546 1546 1548 1548 1548 1548 1550 1551 1551 1550 1550 1550 1550 1548 1548 1548 1543 1541 1543 1542 1535 1528 1525 1528 1529 1531 1535 1537 1533 1533 1530 1530 1532 1533 1534 1528 1531 1527 1517 1513 1511 1513 1508 1495 1493 1492 1492 1490 1489 1486 1484 1482
1536 1536 1537 1539 1540 1541 1541 1542 1544 1544 1546 1544 1543 1545 1544 1544 1544 1542 1542 1540 1538 1542 1539 1525 1524 1523 1523 1524 1526 1528 1530 1530 1529 1528 1528 1528 1528 1519 1520 1513 1512 1510 1508 1499 1494 1491 1488 1486 1486 1485 1483 1481 1480 1479
1532 1533 1533 1533 1534 1532 1534 1536 1537 1537 1538 1538 1537 1537 1538 1539 1536 1538 1537 1535 1537 1537 1535 1525 1519 1518 1519 1520 1521 1521 1522 1525 1527 1527 1524 1522 1519 1519 1512 1510 1501 1506 1498 1500 1482 1487 1485 1480 1482 1481 1477 1475 1474 1472
1530 1531 1531 1530 1528 1529 1531 1528 1529 1530 1530 1530 1529 1529 1531 1531 1531 1530 1533 1530 1529 1532 1532 1524 1515 1510 1512 1513 1514 1516 1518 1518 1519 1518 1516 1512 1513 1515 1507 1492 1488 1489 1489 1489 1478 1482 1481 1477 1476 1475 1472 1469 1466 1464
1528 1528 1528 1527 1524 1525 1527 1527 1527 1525 1525 1525 1525 1524 1524 1527 1527 1527 1525 1525 1526 1528 1526 1520 1512 1508 1506 1507 1508 1512 1514 1514 1514 1512 1507 1506 1507 1510 1498 1481 1482 1482 1483 1481 1478 1476 1471 1471 1466 1466 1464 1462 1460 1459
1527 1526 1525 1524 1522 1521 1521 1522 1524 1523 1522 1521 1521 1519 1519 1522 1520 1521 1522 1522 1521 1523 1521 1516 1508 1507 1502 1504 1505 1506 1510 1510 1508 1505 1501 1500 1500 1497 1483 1471 1473 1473 1470 1470 1469 1470 1466 1464 1462 1461 1460 1460 1458 1457
1522 1522 1522 1521 1522 1520 1517 1518 1521 1520 1519 1519 1518 1517 1515 1516 1518 1515 1516 1518 1520 1524 1518 1511 1506 1503 1499 1501 1503 1505 1506 1507 1503 1498 1495 1496 1490 1481 1466 1467 1466 1467 1467 1465 1465 1464 1463 1460 1459 1458 1458 1457 1457 1455
1517 1516 1518 1517 1517 1517 1515 1515 1516 1518 1517 1515 1516 1515 1514 1513 1513 1514 1513 1514 1514 1511 1511 1502 1498 1498 1499 1500 1502 1506 1503 1499 1493 1486 1488 1484 1470 1464 1463 1463 1462 1463 1461 1459 1459 1460 1459 1459 1459 1458 1457 1457 1456 1453
1511 1513 1512 1513 1512 1513 1512 1512 1511 1513 1515 1513 1513 1512 1510 1510 1510 1509 1506 1505 1503 1497 1495 1491 1493 1493 1495 1497 1498 1497 1493 1492 1489 1479 1479 1473 1466 1459 1458 1458 1458 1459 1459 1458 1459 1461 1461 1461 1460 1457 1453 1452 1449 1446
1505 1507 1506 1507 1508 1507 1507 1509 1511 1508 1509 1511 1511 1510 1509 1507 1506 1506 1499 1496 1493 1491 1485 1485 1486 1488 1490 1491 1492 1488 1485 1484 1480 1473 1474 1470 1461 1458 1458 1459 1460 1461 1463 1463 1462 1458 1457 1455 1453 1450 1447 1445 1443 1439
1500 1500 1501 1501 1503 1501 1503 1503 1504 1506 1506 1507 1507 1505 1503 1503 1501 1499 1499 1489 1485 1481 1482 1483 1484 1484 1484 1486 1485 1482 1477 1473 1469 1467 1463 1462 1460 1460 1460 1460 1461 1460 1459 1459 1458 1455 1450 1448 1446 1444 1441 1438 1434 1429
1493 1493 1495 1495 1496 1495 1497 1498 1499 1502 1501 1499 1498 1498 1494 1498 1490 1487 1483 1483 1484 1483 1482 1482 1484 1485 1483 1482 1479 1475 1470 1469 1468 1468 1469 1462 1461 1462 1460 1457 1456 1454 1454 1454 1452 1448 1443 1440 1436 1434 1431 1427 1424 1420
1485 1486 1487 1488 1489 1490 1490 1492 1493 1493 1493 1491 1489 1484 1486 1479 1480 1481 1480 1481 1482 1483 1484 1484 1484 1485 1483 1480 1476 1477 1477 1466 1465 1465 1459 1457 1457 1456 1455 1453 1450 1448 1447 1444 1442 1439 1436 1432 1428 1423 1421 1418 1414 1410
1479 1479 1478 1481 1483 1485 1485 1486 1486 1484 1481 1482 1480 1478 1477 1478 1478 1478 1478 1479 1481 1481 1483 1484 1484 1487 1484 1479 1483 1477 1486 1481 1465 1456 1453 1454 1453 1451 1448 1446 1443 1440 1436 1433 1430 1428 1425 1421 1418 1413 1409 1406 1403 1400
1472 1471 1473 1475 1477 1479 1481 1481 1481 1478 1472 1467 1467 1467 1469 1471 1470 1470 1472 1474 1476 1477 1479 1479 1482 1476 1471 1476 1479 1470 1470 1458 1452 1450 1449 1448 1445 1442 1440 1437 1434 1431 1428 1424 1420 1417 1413 1410 1406 1402 1398 1393 1392 1388
1464 1465 1468 1469 1471 1473 1475 1473 1473 1470 1467 1463 1464 1465 1466 1468 1469 1469 1469 1470 1471 1470 1469 1470 1469 1466 1470 1477 1469 1456 1451 1449 1446 1443 1440 1437 1435 1434 1431 1427 1424 1420 1416 1412 1410 1406 1402 1398 1394 1390 1386 1382 1380 1375
1458 1461 1462 1464 1466 1467 1468 1467 1467 1463 1460 1459 1457 1460 1460 1460 1461 1462 1463 1463 1463 1463 1463 1463 1462 1462 1457 1451 1449 1445 1442 1439 1435 1433 1431 1429 1427 1423 1420 1416 1412 1408 1405 1401 1397 1393 1390 1387 1383 1378 1374 1372 1369 1364
1453 1455 1456 1458 1459 1461 1459 1458 1458 1456 1454 1453 1452 1453 1454 1454 1455 1455 1456 1456 1457 1457 1455 1454 1450 1445 1443 1439 1437 1434 1431 1429 1428 1424 1421 1419 1416 1413 1409 1405 1401 1397 1394 1390 1386 1383 1378 1372 1368 1366 1363 1360 1357 1353
1449 1449 1451 1453 1453 1455 1455 1452 1452 1452 1453 1450 1447 1447 1448 1447 1447 1446 1446 1447 1449 1448 1445 1441 1436 1432 1429 1427 1425 1423 1422 1422 1420 1418 1412 1408 1405 1403 1398 1394 1390 1387 1384 1379 1374 1369 1366 1362 1358 1355 1351 1348 1345 1343
1445 1446 1447 1448 1448 1448 1448 1447 1448 1448 1449 1446 1445 1445 1444 1443 1440 1437 1438 1440 1438 1432 1429 1426 1423 1420 1418 1416 1414 1413 1412 1411 1408 1405 1403 1400 1394 1389 1385 1382 1379 1375 1370 1366 1361 1358 1355 1351 1348 1344 1340 1336 1334 1331
1441 1442 1443 1444 1444 1442 1442 1442 1443 1443 1443 1441 1441 1440 1437 1434 1431 1431 1431 1427 1423 1420 1417 1415 1411 1410 1409 1406 1405 1403 1402 1400 1396 1393 1390 1387 1382 1378 1374 1371 1367 1364 1358 1350 1351 1350 1345 1340 1336 1334 1331 1328 1325 1321
1438 1440 1437 1436 1436 1436 1438 1438 1438 1438 1437 1438 1439 1441 1433 1427 1424 1423 1423 1416 1413 1410 1407 1404 1404 1401 1398 1397 1394 1391 1389 1388 1385 1381 1378 1375 1370 1365 1362 1358 1354 1349 1345 1344 1342 1336 1331 1327 1325 1322 1318 1316 1313 1311
1437 1436 1435 1431 1431 1433 1434 1435 1435 1435 1433 1433 1436 1432 1422 1419 1422 1424 1416 1405 1402 1399 1397 1395 1393 1391 1388 1385 1382 1380 1379 1377 1375 1371 1364 1364 1360 1355 1349 1345 1342 1336 1336 1334 1328 1325 1320 1316 1312 1310 1307 1305 1303 1300
1430 1426 1427 1425 1428 1430 1430 1433 1431 1428 1427 1430 1425 1416 1414 1416 1421 1411 1399 1392 1391 1389 1388 1386 1383 1380 1377 1375 1373 1369 1365 1365 1364 1358 1350 1352 1349 1347 1341 1337 1330 1318 1324 1323 1318 1313 1308 1304 1302 1299 1296 1294 1293 1291
1423 1419 1419 1420 1421 1422 1423 1422 1422 1422 1423 1423 1415 1413 1413 1417 1408 1388 1385 1383 1381 1379 1378 1376 1374 1371 1367 1363 1361 1358 1355 1353 1351 1346 1341 1337 1335 1334 1331 1325 1319 1313 1312 1309 1306 1302 1298 1295 1292 1289 1286 1283 1282 1280
1410 1410 1413 1413 1415 1415 1416 1417 1415 1416 1409 1403 1404 1407 1404 1398 1379 1375 1375 1372 1370 1367 1365 1362 1360 1357 1356 1352 1350 1347 1343 1341 1336 1332 1327 1322 1320 1318 1316 1312 1308 1304 1301 1298 1295 1292 1289 1286 1283 1279 1276 1273 1271 1270
1404 1403 1406 1407 1409 1409 1408 1406 1402 1396 1393 1394 1392 1384 1379 1373 1369 1365 1361 1360 1358 1356 1352 1347 1343 1345 1342 1340 1338 1336 1334 1331 1327 1320 1315 1310 1306 1305 1305 1301 1298 1294 1291 1287 1284 1282 1279 1276 1272 1269 1266 1263 1261 1260
1398 1399 1400 1401 1403 1401 1392 1390 1385 1384 1384 1383 1379 1374 1368 1359 1352 1355 1352 1348 1346 1342 1339 1337 1335 1334 1332 1330 1326 1324 1323 1321 1318 1315 1309 1302 1299 1295 1293 1290 1286 1282 1278 1274 1270 1267 1265 1263 1260 1258 1256 1254 1252 1250
1393 1394 1394 1392 1389 1384 1379 1379 1377 1376 1374 1369 1367 1367 1357 1349 1345 1343 1343 1340 1337 1334 1332 1329 1327 1327 1325 1322 1319 1314 1310 1310 1307 1304 1300 1295 1290 1287 1283 1280 1276 1273 1270 1267 1263 1260 1258 1256 1254 1252 1250 1248 1246 1245
1389 1389 1389 1388 1379 1376 1375 1372 1368 1364 1361 1358 1353 1351 1348 1347 1344 1340 1337 1336 1334 1331 1329 1328 1325 1321 1319 1315 1312 1308 1303 1299 1296 1292 1289 1285 1281 1277 1274 1271 1268 1265 1263 1260 1258 1255 1253 1251 1249 1247 1245 1243 1241 1240
1385 1384 1383 1382 1376 1371 1368 1368 1362 1358 1354 1350 1345 1344 1343 1343 1342 1340 1337 1335 1333 1330 1326 1323 1319 1315 1312 1308 1305 1301 1297 1293 1289 1286 1282 1278 1274 1271 1268 1265 1262 1260 1257 1255 1252 1250 1247 1246 1244 1242 1241 1240 1238 1237